DELTA 1 DEB, 7170

Orbit data source: Space-Track

DELTA 1 DEB, 7170 is space debris in SSO originally from a launch on Tue, 06 Nov 1973 UTC launched from the Air Force Western Test Range (AFWTR). Debris objects in space refer to the collection of defunct objects orbiting the Earth. Examples of debris include non-operational satellites, rocket bodies, and fragments generated from explosions, collisions, or faulty payload assembly.

Loading next visibility...
Identifier
7170, 1973-086EJ
Orbit
SSO
Country
Flag of USUS
Related business
Manufacturer
Unknown
Mission
Spacecraft
Bus & Motor
Unknown
Mass
Unknown
Launch date (UTC)
1973-11-06 (52 years ago)
Launch vehicle
Unknown
Launch site
Air Force Western Test Range (AFWTR)
Object type
Payload
Rocket body
Debris
Shape & HBR
Unknown shape, 0.1 m
Radar Cross Section
Small (<0.1 m²)

Expand to show TLE details & history
Last TLE update: 15 hours ago

TLE from 15 hours ago
0 DELTA 1 DEB
1  7170U 73086EJ  25353.56541874  .00000583  00000-0  18649-2 0  9993
2  7170 101.6634  26.7037 0102711 166.2911 348.9653 13.06798943440692
Epoch: 2025-12-19T13:34Z
TLE epoch observation values (Epoch: 2025-12-19T13:34:12.179Z)
Latitude
24.44954°
Longitude
-79.89399°
Altitude
1,161.552 km
Speed
7.311 km/s
True Right ascension
14h 08m 14s
True Declination
24° 19' 38"
Sunlit
Object was in daylight at epoch
Visualization orbit readout
Latitude
Unknown
Longitude
Unknown
Altitude
Unknown
Speed
Unknown
Apparent Right ascension
Unknown
Apparent Declination
Unknown
Sunlit
N/A
Visualization observer readout
Local Sidereal Time
03:35:59
Azimuth
Unknown
Elevation
Unknown
Doppler factor
Unknown
Orbital elements
Apogee altitude
1,311.209 km
Perigee altitude
1,154.859 km
Semi-major axis
7,611.171 km
Eccentricity
0.01027
Inclination
101.6634°
RAAN
26.7037°
Arg. of periapsis
166.2911°
True anomaly
348.73715°
Mean anomaly
348.9653°
Eccentric anomaly
348.85151°
Mean motion
3.26863 °/min
Orbital period
110.14 mins
BSTAR
0.0018649
Loading maneuver chart data...
Computing Atmospheric mass density...
Loading historical data...
Loading historical data...
Loading historical data...
Loading historical data...
Loading historical data...
Loading historical data...
Loading historical data...

Documentation

Showing up to 5 results
|